[[{"header":{"parameterUnit":"m.s-1","parameterCategory":1,"la1":30.2991,"la2":30.254,"lo1":-89.0895,"lo2":-89.0444,"dx":0.0017,"dy":0.0017,"nx":28,"ny":28,"refTime":"2022-12-16T15:00:00:Z","depth":0,"parameterNumber":2,"parameterNumberName":"U-component_of_WINDS"},"data":[0,0,0,0,0,0,0,0,0,0,0,0,0,0,0,0,0,0,0,0,0,0,0,0,0,0,0,0,0,0,0,0,0,0,0,0,0,0,0,0,0,0,0,0,0,0,0,0,0,0,0,0,0,0,0,0,0,0,1.1151,1.1152,0,1.1219,1.122,1.1221,1.1218,1.1217,1.1216,1.1215,1.1286,1.1288,1.1291,0,0,0,0,0,0,0,0,0,0,0,0,0,1.1022,1.1025,1.1151,1.1152,1.1153,1.1219,1.122,1.1221,1.1218,1.1217,1.1216,1.1215,1.1285,1.1288,1.1291,0,0,0,0,0,0,0,0,0,0,0,0,0,1.1083,1.1025,1.1151,1.1159,1.1161,1.1219,1.122,1.1221,1.1218,1.1217,1.1215,1.1214,1.1284,1.1288,1.1292,1.1346,0,0,1.1305,1.1306,0,0,0,0,0,0,0,0,1.108,1.1088,1.1157,1.1159,1.1161,1.1209,1.12,1.1263,1.1219,1.1196,1.1215,1.1213,1.1261,1.1267,1.1283,1.135,1.1353,1.1305,1.1307,1.1309,1.131,0,0,0,0,0,0,0,1.1075,1.1085,1.1178,1.1158,1.116,1.1161,1.1168,1.1212,1.1236,1.1198,1.1198,1.1206,1.1262,1.1279,1.1285,1.1354,1.1305,1.1309,1.1311,1.1313,1.1472,1.1474,0,0,0,0,0,0,1.1069,1.1081,1.1176,1.118,1.1116,1.1164,1.1172,1.1195,1.1236,1.124,1.1207,1.1206,1.1273,1.128,1.1287,1.1356,1.1309,1.1313,1.1316,1.1471,1.1473,1.1475,0,0,0,0,0,0,1.1066,1.1077,1.1173,1.1131,1.1143,1.1168,1.1193,1.1197,1.1214,1.1243,1.1247,1.122,1.1272,1.1281,1.1332,1.1358,1.1315,1.1319,1.1468,1.1471,1.1474,1.1492,0,0,0,0,0,0,1.1063,1.1076,1.1096,1.1131,1.1145,1.1216,1.1195,1.1199,1.1221,1.122,1.1256,1.1261,1.1271,1.1326,1.1337,1.1363,1.1322,1.1466,1.147,1.1473,1.1489,1.1495,1.15,0,0,0,0,0,1.1058,1.1098,1.1097,1.1109,1.117,1.1217,1.1225,1.1237,1.1223,1.1244,1.1263,1.1259,1.1354,1.1331,1.1343,1.1371,1.1465,1.1469,1.1472,1.1487,1.1494,1.15,0,0,0,0,0,0,1.1065,1.1103,1.1102,1.1155,1.1183,1.1217,1.1243,1.1243,1.1276,1.1274,1.1287,1.1295,1.1347,1.1364,1.1339,1.1428,1.1408,1.1414,1.1415,1.1422,1.1427,1.1422,1.1325,0,0,0,0,0,1.1073,1.1107,1.1138,1.1182,1.1196,1.1218,1.1238,1.1245,1.1275,1.1287,1.1309,1.1339,1.1376,1.14,1.1435,1.1492,1.1501,1.1518,1.1523,1.1527,1.1533,1.1567,1.1576,1.1487,1.1487,1.1487,0,0,1.1089,1.1114,1.1134,1.1184,1.1207,1.1243,1.1227,1.1266,1.1294,1.1293,1.1343,1.1361,1.1395,1.1451,1.1476,1.1466,1.1559,1.1532,1.1535,1.1539,1.1572,1.1581,1.1588,1.149,1.149,1.1489,0,0,1.1137,1.1158,1.1198,1.1222,1.1257,1.1272,1.1281,1.1316,1.1328,1.1379,1.138,1.1414,1.1476,1.1501,1.1522,1.1585,1.1584,1.1596,1.1623,1.1657,1.1664,1.167,1.1695,1.1703,1.1601,1.1601,1.1601,0,1.1152,1.1206,1.1219,1.1258,1.1281,1.1283,1.1325,1.1348,1.1392,1.1409,1.1398,1.1478,1.1501,1.1564,1.158,1.1596,1.1609,1.1591,1.1662,1.1668,1.1675,1.1698,1.1707,1.1603,1.1603,1.1602,1.1602,0,1.1225,1.1263,1.1291,1.1335,1.1362,1.1402,1.1422,1.1447,1.1453,1.1469,1.1523,1.1551,1.1594,1.1609,1.1614,1.1674,1.1667,1.1659,1.1639,1.1684,1.1706,1.1715,1.1605,1.1604,1.1604,1.1603,0,0,1.1277,1.133,1.134,1.1361,1.1402,1.1432,1.1474,1.1516,1.1539,1.1571,1.1607,1.1662,1.1656,1.168,1.1689,1.1718,1.1769,1.1707,1.1708,1.1719,1.1839,1.1845,1.1855,1.1769,1.177,1.1772,1.1837,0,1.133,1.1404,1.1418,1.1482,1.1519,1.1524,1.1561,1.1591,1.1608,1.1643,1.1663,1.1702,1.169,1.1705,1.1734,1.1756,1.1793,1.1752,1.1804,1.1806,1.1796,1.1866,1.1872,1.1932,1.1845,1.1846,1.1848,0,1.1401,1.1436,1.1504,1.1543,1.1559,1.1592,1.1633,1.1666,1.1702,1.1713,1.1741,1.1748,1.1794,1.1772,1.1837,1.1809,1.1832,1.1847,1.1849,1.1855,1.1829,1.1874,1.1951,1.196,1.1861,1.186,1.1859,0,1.1434,1.1498,1.1548,1.1566,1.1612,1.1636,1.1656,1.169,1.1716,1.1752,1.177,1.1811,1.1834,1.1867,1.1885,1.1868,1.195,1.1929,1.1962,1.1962,1.1978,1.1977,1.206,1.1992,1.1992,1.1992,1.1992,0,1.1491,1.1534,1.1564,1.1594,1.1643,1.166,1.1708,1.1728,1.176,1.1796,1.1803,1.1837,1.1859,1.1897,1.1912,1.1965,1.1975,1.1986,1.199,1.1986,1.1985,1.2001,1.1998,1.1995,1.1994,1.1994,1.1993,0,1.1535,1.1557,1.1612,1.1653,1.1664,1.1698,1.1733,1.1765,1.1783,1.183,1.1842,1.1871,1.1917,1.1939,1.1995,1.2005,1.2066,1.2067,1.2054,1.2056,1.2088,1.2085,1.2184,1.2199,1.2121,1.2121,1.2122,0,1.1571,1.1604,1.1648,1.1673,1.1695,1.1734,1.1761,1.1781,1.1808,1.1853,1.188,1.1926,1.1964,1.2037,1.2064,1.2109,1.2111,1.2143,1.2117,1.2114,1.2113,1.2111,1.2116,1.2147,1.2148,1.2149,1.2149,0,1.1632,1.1642,1.168,1.1723,1.1755,1.1789,1.1823,1.1844,1.1869,1.19,1.1947,1.1977,1.2036,1.2082,1.2129,1.2152,1.2156,1.2157,1.2167,1.2164,1.2156,1.2162,1.2068,1.2155,1.2154,1.2154,1.2153,1.2153,1.1674,1.1704,1.1741,1.1784,1.1813,1.1845,1.1878,1.1901,1.1941,1.199,1.2,1.2051,1.2089,1.2152,1.2177,1.2218,1.2211,1.2225,1.2229,1.2233,1.2235,1.2149,1.2227,1.2227,1.2227,1.2227,1.2226,0,1.1737,1.1761,1.1801,1.1849,1.1884,1.1885,1.1924,1.1953,1.1997,1.2033,1.2071,1.2127,1.2173,1.2206,1.2253,1.228,1.2283,1.2292,1.229,1.2296,1.2238,1.2225,1.2289,1.2289,1.2289,1.2289,1.2289,1.2289,1.1773,1.1826,1.1841,1.1909,1.1934,1.1983,1.2006,1.2037,1.2066,1.2128,1.2167,1.2188,1.2223,1.2274,1.2318,1.2326,1.2344,1.2353,1.2362,1.2306,1.23,1.2294,1.2282,1.2357,1.2357,1.2417,1.2417,1.2418]},{"header":{"parameterUnit":"m.s-1","parameterCategory":1,"la1":30.2991,"la2":30.254,"lo1":-89.0895,"lo2":-89.0444,"dx":0.0017,"dy":0.0017,"nx":28,"ny":28,"refTime":"2022-12-16T15:00:00:Z","depth":0,"parameterNumber":3,"parameterNumberName":"V-component_of_WINDS"},"data":[0,0,0,0,0,0,0,0,0,0,0,0,0,0,0,0,0,0,0,0,0,0,0,0,0,0,0,0,0,0,0,0,0,0,0,0,0,0,0,0,0,0,0,0,0,0,0,0,0,0,0,0,0,0,0,0,0,0,-4.0395,-4.0395,0,-4.0448,-4.0449,-4.0449,-4.0391,-4.0389,-4.0386,-4.0384,-4.0439,-4.0443,-4.0446,0,0,0,0,0,0,0,0,0,0,0,0,0,-4.0239,-4.0242,-4.0394,-4.0395,-4.0396,-4.0448,-4.0449,-4.045,-4.0391,-4.0389,-4.0386,-4.0383,-4.0438,-4.0442,-4.0447,0,0,0,0,0,0,0,0,0,0,0,0,0,-4.0301,-4.0243,-4.0394,-4.0373,-4.0372,-4.0448,-4.0449,-4.045,-4.0392,-4.0389,-4.0385,-4.0382,-4.0437,-4.0442,-4.0447,-4.0547,0,0,-4.0463,-4.0466,0,0,0,0,0,0,0,0,-4.0297,-4.0307,-4.0376,-4.0375,-4.0373,-4.0409,-4.0414,-4.0482,-4.0393,-4.0384,-4.0384,-4.038,-4.0432,-4.0438,-4.0455,-4.055,-4.0552,-4.0464,-4.0467,-4.0469,-4.0471,0,0,0,0,0,0,0,-4.0293,-4.0304,-4.0416,-4.0377,-4.0375,-4.036,-4.0365,-4.0427,-4.0426,-4.0385,-4.0381,-4.0388,-4.0431,-4.045,-4.0456,-4.0553,-4.0464,-4.0468,-4.0472,-4.0474,-4.0727,-4.0731,0,0,0,0,0,0,-4.0291,-4.0301,-4.0414,-4.0417,-4.0326,-4.0365,-4.0371,-4.0401,-4.0425,-4.0426,-4.0391,-4.0385,-4.0443,-4.045,-4.0458,-4.0573,-4.0469,-4.0474,-4.0477,-4.0724,-4.0728,-4.0732,0,0,0,0,0,0,-4.0288,-4.0302,-4.0412,-4.0358,-4.0371,-4.0372,-4.0406,-4.0404,-4.0423,-4.043,-4.0429,-4.041,-4.044,-4.045,-4.0524,-4.0574,-4.0477,-4.0482,-4.072,-4.0725,-4.073,-4.0806,0,0,0,0,0,0,-4.0284,-4.0301,-4.034,-4.0359,-4.0374,-4.0479,-4.0409,-4.0408,-4.0433,-4.0426,-4.0448,-4.0449,-4.0438,-4.0517,-4.0529,-4.0579,-4.0486,-4.0715,-4.0722,-4.0728,-4.0799,-4.0813,-4.0826,0,0,0,0,0,-4.0279,-4.0361,-4.0343,-4.0357,-4.0423,-4.0482,-4.049,-4.0476,-4.0437,-4.0475,-4.0479,-4.0448,-4.0567,-4.0525,-4.0539,-4.0591,-4.0712,-4.072,-4.0728,-4.0793,-4.0811,-4.0825,0,0,0,0,0,0,-4.0349,-4.0363,-4.0343,-4.0434,-4.0457,-4.0472,-4.052,-4.0496,-4.0531,-4.0523,-4.0504,-4.051,-4.0587,-4.0597,-4.055,-4.0687,-4.0633,-4.0644,-4.0678,-4.0694,-4.0707,-4.0702,-4.049,0,0,0,0,0,-4.0374,-4.0422,-4.0432,-4.0511,-4.0523,-4.052,-4.0545,-4.0532,-4.0555,-4.0565,-4.0574,-4.0597,-4.0639,-4.0668,-4.0707,-4.0801,-4.0803,-4.0843,-4.0856,-4.0867,-4.0877,-4.0923,-4.094,-4.0758,-4.0758,-4.0758,0,0,-4.0429,-4.0442,-4.0474,-4.0525,-4.0541,-4.0589,-4.0528,-4.0583,-4.0617,-4.0573,-4.0642,-4.065,-4.0675,-4.0758,-4.0795,-4.0768,-4.0927,-4.0877,-4.0886,-4.0889,-4.0933,-4.095,-4.0965,-4.0763,-4.0762,-4.0762,0,0,-4.0551,-4.0568,-4.0633,-4.065,-4.0675,-4.0671,-4.0687,-4.0705,-4.0708,-4.0777,-4.0744,-4.0785,-4.0859,-4.0876,-4.0895,-4.102,-4.0992,-4.1034,-4.1102,-4.1147,-4.1162,-4.1174,-4.1216,-4.1231,-4.1043,-4.1043,-4.1044,0,-4.0615,-4.0687,-4.067,-4.0725,-4.0747,-4.0708,-4.0773,-4.079,-4.0827,-4.0843,-4.0812,-4.0901,-4.0916,-4.1,-4.103,-4.1048,-4.1063,-4.103,-4.1161,-4.1173,-4.1185,-4.1224,-4.124,-4.1048,-4.1048,-4.1047,-4.1047,0,-4.0762,-4.0812,-4.0862,-4.0896,-4.0924,-4.0985,-4.0975,-4.1005,-4.0989,-4.0988,-4.1058,-4.1073,-4.1113,-4.1132,-4.1118,-4.1214,-4.1196,-4.1164,-4.1109,-4.1207,-4.1243,-4.1259,-4.1055,-4.1053,-4.1052,-4.1051,0,0,-4.0932,-4.0954,-4.0972,-4.0985,-4.1009,-4.1046,-4.1103,-4.1141,-4.1166,-4.1192,-4.1238,-4.1299,-4.1268,-4.1289,-4.1277,-4.1317,-4.141,-4.1279,-4.1279,-4.13,-4.1513,-4.1535,-4.1553,-4.1392,-4.1395,-4.1398,-4.151,0,-4.1052,-4.1151,-4.1135,-4.123,-4.1273,-4.1235,-4.1284,-4.1303,-4.1303,-4.1339,-4.1339,-4.1382,-4.134,-4.1351,-4.1389,-4.1391,-4.1452,-4.1383,-4.1432,-4.1434,-4.1425,-4.1573,-4.1598,-4.1703,-4.1524,-4.1527,-4.1529,0,-4.1207,-4.1236,-4.1334,-4.1346,-4.1364,-4.1408,-4.144,-4.1476,-4.1495,-4.1492,-4.1514,-4.1493,-4.1547,-4.1492,-4.1566,-4.1519,-4.1538,-4.1542,-4.1545,-4.1548,-4.1486,-4.1577,-4.1737,-4.1751,-4.1551,-4.155,-4.1548,0,-4.1316,-4.1381,-4.1446,-4.1459,-4.1476,-4.1508,-4.1516,-4.1532,-4.1554,-4.1582,-4.1596,-4.163,-4.1649,-4.1675,-4.1662,-4.1624,-4.1737,-4.1682,-4.1734,-4.1734,-4.1758,-4.1757,-4.1921,-4.1775,-4.1775,-4.1775,-4.1775,0,-4.1451,-4.1512,-4.1495,-4.1536,-4.1601,-4.1582,-4.1648,-4.1652,-4.1666,-4.1705,-4.1675,-4.1712,-4.1694,-4.173,-4.1721,-4.1781,-4.1791,-4.1788,-4.1785,-4.179,-4.1789,-4.18,-4.1792,-4.1779,-4.1778,-4.1777,-4.1777,0,-4.1584,-4.1576,-4.1645,-4.1654,-4.1657,-4.1705,-4.1712,-4.1749,-4.1746,-4.1795,-4.1806,-4.1801,-4.1841,-4.1831,-4.1876,-4.187,-4.1944,-4.1933,-4.1938,-4.1934,-4.1985,-4.1979,-4.2161,-4.2182,-4.2025,-4.2027,-4.2028,0,-4.167,-4.1715,-4.1728,-4.1751,-4.1762,-4.1801,-4.1822,-4.1805,-4.1829,-4.1852,-4.1885,-4.1922,-4.1951,-4.2016,-4.2016,-4.2049,-4.2036,-4.2097,-4.2041,-4.2043,-4.2033,-4.2029,-4.2032,-4.2108,-4.211,-4.2111,-4.2112,0,-4.1822,-4.1814,-4.1847,-4.1877,-4.1903,-4.1927,-4.1947,-4.1968,-4.1951,-4.198,-4.2019,-4.2041,-4.2085,-4.2121,-4.215,-4.2158,-4.2132,-4.213,-4.2143,-4.2148,-4.2147,-4.2145,-4.1965,-4.2126,-4.2124,-4.2123,-4.2123,-4.2122,-4.1932,-4.1968,-4.1982,-4.2018,-4.2031,-4.2049,-4.2083,-4.2083,-4.2115,-4.2149,-4.2136,-4.2181,-4.2195,-4.2232,-4.2243,-4.2277,-4.2253,-4.2274,-4.2278,-4.2283,-4.2287,-4.2144,-4.2283,-4.2282,-4.2282,-4.2281,-4.2281,0,-4.2079,-4.2084,-4.2118,-4.2146,-4.2173,-4.2146,-4.2166,-4.219,-4.223,-4.2245,-4.2273,-4.2317,-4.2351,-4.2352,-4.2384,-4.241,-4.2398,-4.2419,-4.2415,-4.2417,-4.2308,-4.2292,-4.2427,-4.2427,-4.2427,-4.2427,-4.2427,-4.2427,-4.2158,-4.2217,-4.2211,-4.2275,-4.2281,-4.2323,-4.2336,-4.2353,-4.2364,-4.2414,-4.2441,-4.2442,-4.2451,-4.2482,-4.2511,-4.2511,-4.2522,-4.2546,-4.2541,-4.2439,-4.2425,-4.2411,-4.2395,-4.255,-4.255,-4.2646,-4.2647,-4.2648]}]]